Weather in Rokyty

Ukraine / Poltava Region     49°41′11″N   33°00′08″E
temp.,
°C
wind,
m/s
gust,
m/s
humid.,
%
clouds,
%
prec.,
mm/h
press.,
hPa
HPBL,
m
18 august, thu
thu1800:00+20w338218 0.0 100930
03:00+19wnw228379 0.0 100826
06:00+17ne237850 0.3 100928
09:00+23ne355531 0.3 1009377
12:00+29ne343498 0.0 10091181
15:00+31nne44300 0.0 10081806
18:00+30nne55320 0.0 10081975
21:00+24nne46500 0.0 100992
19 august, fri
fri1900:00+21nne49630 0.0 1010178
03:00+19nne48710 0.0 1009152
06:00+18ne410800 0.0 1010275
09:00+23ne67620 0.0 1011625
12:00+28ne56470 0.0 10111264
15:00+30ne543921 0.0 10112012
18:00+30ne553953 0.0 10101969
21:00+23nne6125960 0.0 1011378
20 august, sat
sat2000:00+20ene5118311 0.1 1012323
03:00+18ne49920 0.1 1012220
06:00+16ne37910 0.0 1013199
09:00+22e45690 0.0 1013480
12:00+29ese44480 0.0 10121318
15:00+31se4440100 0.1 10122347
18:00+27n3551100 0.1 101187
21:00+23e487431 1.1 1013191
21 august, sun
sun2100:00+18ene497449 1.6 1013129
03:00+18e35696 1.6 101369
06:00+18e38851 0.0 1013145
09:00+23ese7106727 0.1 1013662
12:00+26ese7946100 0.0 1013866
15:00+26ene4736100 0.0 1013586
18:00+28e253394 0.0 1012620
21:00+24e34419 0.0 101240
22 august, mon
mon2200:00+21e5123294 0.0 1012220
03:00+19e4113690 0.0 1012193
06:00+21e5133193 0.0 1012317
09:00+24ese71129100 0.0 1012638
12:00+28ese792399 0.0 10121553
15:00+31ese810229 0.0 10122416
18:00+31se710265 0.0 10112522
21:00+23e455322 0.2 101257